Location: Santa Margarita Mountains
(33.4725°N, 117.3967°W)
Time: 05:14:02
(UTC+00:00)

Daily predictions for brighter satellites

Satellite Brightness Start Highest point End
(mag) Time Altitude Azimuth Time Altitude Azimuth Time Altitude Azimuth
IRIDIUM 106 4.3 03:21:08 10° S 03:26:20 79° E 03:31:33 10° N
CARTOSAT-1 4.2 03:23:05 10° S 03:27:13 59° W 03:31:23 10° NNW
Cosmos 1943 Rocket 3.9 03:23:19 10° SW 03:28:25 38° WNW 03:33:35 10° N
CZ-4 R/B 1.1 03:34:04 10° SSE 03:37:43 75° ENE 03:41:25 10° N
Cosmos 1606 3.6 03:35:23 10° NNE 03:37:47 21° E 03:39:56 11° SE
Cosmos 2297 4.3 03:39:34 10° SSE 03:44:32 33° ESE 03:49:32 10° NE
Cosmos 158 Rocket 3.8 03:40:20 10° NNW 03:45:10 68° ENE 03:50:00 10° SSE
Cosmos 1328 3.6 03:41:36 10° S 03:45:13 85° W 03:48:53 10° N
GP-B 3.0 03:41:44 10° N 03:46:06 69° E 03:50:26 10° S
CSL-04 Debris 4.1 03:41:29 10° SSE 03:46:49 73° ENE 03:52:09 10° N
USA 186 1.5 03:46:07 11° SSE 03:48:37 50° ENE 03:51:17 10° N
Cosmos 1486 Rocket 4.2 03:44:07 10° S 03:49:10 52° ESE 03:54:17 10° NNE
Cosmos 1461 3.3 03:49:24 10° NW 03:53:24 58° WSW 03:57:18 10° SSE
CZ-4B DEB 4.3 03:49:09 10° SSE 03:54:34 83° WSW 04:00:01 10° NNW
ADEOS 3.6 03:49:32 10° SSE 03:54:44 87° ENE 03:59:58 10° NNW
Terra 3.1 03:52:28 13° ESE 03:55:25 24° ENE 03:59:09 10° NNE
CSL-04 Rocket 3.7 03:50:39 10° SSE 03:56:01 90° WSW 04:01:30 10° NNW
Cosmos 1656 Rocket 3.6 03:50:50 10° SSW 03:56:24 81° ESE 04:01:56 10° NNE
Cosmos 2242 Rocket 3.8 03:52:24 10° SSE 03:56:36 49° E 04:00:50 10° NNE
COSMOS 2406 3.8 03:51:20 10° N 03:56:46 42° ENE 04:01:02 16° SE
CZ-4B R/B 3.2 03:54:40 10° SSE 03:59:56 66° ENE 04:05:20 10° N
CZ-2C R/B 3.2 03:58:35 10° S 04:01:44 48° W 04:04:51 10° NNW
ERS-1 Rocket 3.7 03:58:56 16° SE 04:02:21 34° ENE 04:06:50 10° N
SPOT 5 3.0 03:58:15 10° SSE 04:03:25 75° ENE 04:08:43 10° N
Cosmos 1782 Rocket 3.5 04:00:33 10° N 04:04:58 88° WSW 04:09:19 10° S
CZ-4B R/B 3.1 04:03:58 20° SE 04:06:02 41° ENE 04:09:28 10° N
CZ-4C R/B 2.5 04:09:47 21° ESE 04:10:21 22° ESE 04:13:47 10° ENE
MOS 1 4.4 04:06:51 14° SSE 04:11:34 62° ENE 04:17:07 10° N
Cosmos 1340 Rocket 3.8 04:09:40 10° NNE 04:12:58 27° ENE 04:14:05 23° ESE
Cosmos 2082 Rocket 2.3 04:09:03 10° NNW 04:14:47 76° WSW 04:19:43 14° SSE
Cosmos 2369 Rocket 2.1 04:15:21 10° S 04:21:00 71° ESE 04:26:41 10° NNE
Cosmos 220 Rocket 3.9 04:19:03 10° NNW 04:23:18 86° WSW 04:25:52 23° SSE
Helios 1A 2.9 04:19:42 10° NNE 04:23:33 53° E 04:25:48 23° S
Cosmos 1674 Rocket 4.1 04:23:16 27° SE 04:25:01 39° E 04:29:08 10° NNE
Resurs 01 Rocket 4.3 04:22:49 10° SW 04:25:25 15° W 04:28:01 10° WNW
Helios 1B rocket 2.2 04:25:27 32° SE 04:26:56 60° ENE 04:30:34 10° N
Cosmos 1503 Rocket 3.9 04:26:05 10° SSW 04:31:15 84° ESE 04:36:25 10° NNE
Cosmos 2208 Rocket 4.1 04:26:51 10° N 04:32:04 61° ENE 04:34:41 29° SE
Okean-O 2.6 04:32:26 32° SE 04:34:19 62° ENE 04:38:39 10° N
Tiangong -2.1 04:35:44 10° WSW 04:38:59 85° NNW 04:40:16 34° ENE
Cosmos 1354 Rocket 3.9 04:35:21 11° S 04:40:17 70° ESE 04:45:28 10° NNE
OAO 2 Rocket 4.5 04:36:27 10° SSW 04:39:13 24° S 04:39:13 24° S
Cosmos 2263 4.1 04:35:06 10° SSW 04:40:45 76° ESE 04:46:24 10° NNE
Cosmos 1378 Rocket 3.4 04:38:41 21° S 04:41:28 89° W 04:45:46 10° N
Okean O Rocket 1.6 04:39:40 27° S 04:41:58 76° WSW 04:46:20 10° NNW
DELTA 2 R/B (1) 3.6 04:39:19 10° WSW 04:44:50 82° NNW 04:50:24 10° ENE
Cosmos 836 Rocket 4.5 04:41:09 10° NNW 04:46:27 86° WSW 04:48:57 32° SSE
IKONOS-2 4.4 04:43:29 10° NNE 04:47:33 57° E 04:48:15 49° SE
Cosmos 1025 Rocket 3.3 04:47:34 42° ESE 04:47:51 43° E 04:51:59 10° NNE
Cosmos 1634 Rocket 4.1 04:44:33 10° N 04:50:42 74° W 04:54:59 21° S
Cosmos 773 Rocket 3.9 04:46:20 10° NNW 04:51:38 77° ENE 04:53:31 40° SSE
Ariane Rocket 3.8 04:52:03 30° E 04:52:55 32° ENE 04:57:22 10° N
Meteor PRIRODA 4.2 04:57:27 35° W 04:57:28 35° W 05:00:07 10° NNW
ASTEX 1 3.5 04:53:13 10° NNE 04:57:58 53° E 04:58:39 49° SE
CZ-4B R/B 4.5 04:55:29 18° SSW 04:59:07 44° W 05:04:03 10° NNW
IRS-1A Rocket 4.3 05:00:24 33° S 05:02:57 74° WSW 05:08:29 10° NNW
COBE Rocket 4.5 05:03:38 10° NNE 05:07:12 36° ENE 05:07:12 36° ENE
Cosmos 2279 Rocket 4.0 05:02:15 10° N 05:08:29 80° W 05:11:27 33° S
Meteor 2-12 Rocket 4.5 05:13:30 29° SSW 05:16:53 79° W 05:23:02 10° N
Cosmos 1867 3.8 05:17:38 48° E 05:17:38 48° E 05:22:14 10° NE
SPOT 3 Rocket 3.5 05:18:24 61° ESE 05:19:04 69° ENE 05:24:14 10° N
BREEZE M DEB (TANK) 4.4 05:16:04 10° WSW 05:23:21 42° NW 05:26:16 10° NNE
Cosmos 44 3.8 05:20:30 17° SW 05:23:35 50° WNW 05:27:48 10° NNE
IRS-1C Rocket 4.0 05:23:37 64° SSE 05:24:28 89° WSW 05:29:45 10° NNW
Spot 2 Rocket 3.9 05:26:28 45° SSW 05:27:40 56° W 05:32:40 10° NNW
Meteor 1-11 4.4 05:26:01 37° SSW 05:28:24 72° W 05:34:14 10° N
Okean 2 Rocket 3.2 05:26:11 10° NNW 05:30:26 69° W 05:30:26 69° W
Terra 3.4 05:31:06 22° SW 05:32:46 28° W 05:36:48 10° NW
Cosmos 1898 Rocket 4.1 05:34:56 42° ENE 05:34:56 42° ENE 05:38:47 10° NNE
Cosmos 2151 Rocket 4.4 05:32:50 10° NNW 05:37:07 44° W 05:37:30 43° WSW
Cosmos 1818 3.8 05:31:55 10° NNW 05:37:16 56° ENE 05:37:24 56° ENE
Meteor 2-1 Rocket 4.1 05:34:26 10° N 05:40:13 70° E 05:40:22 69° E
Cosmos 1975 Rocket 4.4 05:43:31 30° NNE 05:43:31 30° NNE 05:45:55 10° NNE
Okean 1 Rocket 3.6 05:42:09 10° NNW 05:45:52 53° WNW 05:45:52 53° WNW
CZ-4C R/B 3.7 05:54:55 10° WSW 05:58:19 25° NW 06:02:19 10° N
Cosmos 1455 Rocket 4.2 05:54:24 10° N 05:57:12 40° N 05:57:12 40° N
Aureole 1 Rocket 4.2 05:59:04 55° SW 06:00:28 73° WNW 06:07:39 10° NNE
Cosmos 1627 Rocket 4.3 06:00:40 82° SSW 06:00:58 87° W 06:07:07 10° N
NOSS 3-4 (A) 4.1 06:05:15 10° NW 06:12:31 63° WSW 06:13:42 57° SSW
NOSS 3-4 (C) 4.1 06:05:18 10° NW 06:12:34 64° WSW 06:13:42 58° SSW
Cosmos 2297 Rocket 4.2 06:20:00 10° NNE 06:23:35 17° NE 06:23:35 17° NE
DELTA 2 R/B (1) 4.5 06:26:18 10° WNW 06:31:37 45° N 06:32:24 42° NNE
Cosmos 1937 Rocket 4.4 06:34:00 45° NNW 06:34:00 45° NNW 06:37:52 10° N
Cosmos 1553 Rocket 4.3 06:48:59 10° N 06:54:15 65° NNW 06:54:15 65° NNW
Cosmos 2227 Rocket 4.4 06:53:15 10° NNE 06:56:16 14° NE 06:56:29 14° ENE
Cosmos 2263 Rocket 4.3 07:41:15 10° NNE 07:45:03 18° ENE 07:45:10 18° ENE
Cosmos 2297 Rocket 3.7 08:02:31 10° NNW 08:05:21 30° NW 08:05:21 30° NW
Cosmos 1980 Rocket 3.4 08:12:50 38° NNE 08:12:50 38° NNE 08:16:14 10° NNE
Cosmos 1697 Rocket 4.2 08:16:52 29° NW 08:16:52 29° NW 08:20:48 10° N
CZ-2C R/B 4.0 08:23:44 36° NE 08:23:44 36° NE 08:27:49 10° N
ATLAS 2AS CENTAUR R/B 3.8 08:30:24 10° NNW 08:36:35 37° NE 08:38:28 32° E
USA 215 3.4 08:39:39 70° N 08:39:39 70° N 08:45:41 10° NW
Cosmos 2227 Rocket 3.5 08:35:10 10° NNW 08:38:15 33° NNW 08:38:15 33° NNW
IDEFIX/ARIANE 42P 4.3 08:42:02 10° NE 08:44:56 26° ENE 08:44:56 26° ENE
Cosmos 2360 Rocket 4.3 08:50:03 16° E 08:50:03 16° E 08:52:33 10° ENE
Cosmos 2322 Rocket 3.5 09:12:01 32° E 09:12:01 32° E 09:16:07 10° NE
ADEOS II 4.3 09:15:45 10° ENE 09:18:46 15° E 09:19:13 15° E
Nadezhda 1 Rocket 4.3 09:18:43 10° NNW 09:23:43 56° NW 09:23:43 56° NW
Cosmos 2263 Rocket 3.5 09:23:48 10° NNW 09:26:47 31° NW 09:26:47 31° NW
CENTAUR R/B 2.4 09:32:59 66° NE 09:32:59 66° NE 09:38:24 10° NNE
Cosmos 44 Rocket 4.3 09:38:04 40° N 09:38:04 40° N 09:41:13 10° NNE
Cosmos 2082 4.2 09:31:09 10° NNW 09:35:19 50° NNW 09:35:19 50° NNW
Cosmos 1709 Rocket 4.3 09:40:28 55° WNW 09:40:28 55° WNW 09:46:12 10° N
SL-16 R/B 2.4 09:42:49 62° NNW 09:42:49 62° NNW 09:47:49 10° NNE
Cosmos 2333 Rocket 2.3 09:45:39 73° ENE 09:45:39 73° ENE 09:50:58 10° NNE
MSX 3.9 09:40:17 10° N 09:45:36 69° NW 09:45:36 69° NW
NOSS 3-2 (A) 3.8 09:47:01 41° E 09:47:01 41° E 09:51:23 10° NE
FENGYUN 3A 3.8 09:41:09 10° NNE 09:46:12 71° ENE 09:46:12 71° ENE
ATLAS CENTAUR R/B 4.0 09:50:22 10° E 09:50:22 10° E 09:50:32 10° E
Meteor 1-5 Rocket 4.3 09:56:10 66° ESE 09:56:32 68° E 10:02:08 10° NNE
Cosmos 2181 Rocket 4.2 09:50:43 10° N 09:56:46 62° E 09:58:16 48° SE
Meteor 1-10 Rocket 4.3 09:52:05 10° NNW 09:57:32 72° WNW 09:57:32 72° WNW
Delta 2 Rocket 4.4 10:06:02 42° ENE 10:06:02 42° ENE 10:08:59 10° ENE
NPP 4.0 10:00:08 10° N 10:05:00 50° WNW 10:05:00 50° WNW
Cosmos 1140 Rocket 4.2 10:00:25 10° N 10:05:26 51° ENE 10:07:08 36° ESE
H-2A R/B 2.7 10:04:43 10° N 10:07:58 50° N 10:07:58 50° N
ARIANE 6 FM1 Upper Stage 3.6 10:11:13 42° ENE 10:11:13 42° ENE 10:14:05 10° NE
H-2A R/B 3.5 10:12:35 21° SE 10:12:35 21° SE 10:17:04 10° E
Resurs 1-4 Rocket 1.9 10:07:57 10° NNE 10:13:17 90° E 10:13:36 80° SSW
Milstar 3 Cent rocket 3.1 10:15:47 43° SSE 10:15:47 43° SSE 10:20:35 10° E
SeaSat 1 3.2 10:18:29 17° SE 10:22:04 52° ENE 10:26:49 10° NNW
Cosmos 1844 Rocket 2.6 10:19:30 10° NNW 10:25:08 81° ENE 10:27:29 36° SSE
Cosmos 2333 4.0 10:25:05 66° SW 10:25:51 80° WNW 10:31:29 10° NNE
IDEFIX/ARIANE 42P 3.9 10:21:41 10° NNW 10:25:38 25° WNW 10:25:38 25° WNW
ATLAS 2AS CENTAUR R/B 3.5 10:21:21 10° NW 10:25:47 32° W 10:25:47 32° W
CZ-2D R/B 1.9 10:22:42 10° N 10:27:53 72° WNW 10:28:24 66° WSW
Cosmos 1844 3.7 10:24:53 10° NNW 10:30:37 81° ENE 10:34:08 25° SSE
Cosmos 2227 4.1 10:25:00 10° NNW 10:30:39 68° WSW 10:31:35 58° SSW
Cosmos 2360 Rocket 2.4 10:31:48 48° W 10:32:30 51° WNW 10:37:58 10° N
Cosmos 2184 Rocket 4.1 10:38:07 47° SW 10:39:47 62° W 10:46:07 10° N
OAO 3 Rocket 3.2 10:40:20 45° WNW 10:41:42 73° N 10:46:24 10° E
Cosmos 1269 Rocket 4.3 10:40:03 10° NNW 10:44:57 45° W 10:44:57 45° W
Cosmos 2219 Rocket 2.1 10:45:24 49° SW 10:46:53 72° WNW 10:52:29 10° NNE
Cosmos 1805 3.5 10:46:38 48° ESE 10:46:56 50° E 10:50:17 10° NNE
ALOS 2.2 10:43:03 10° N 10:47:34 63° WNW 10:48:09 56° WSW
H-2A R/B 2.9 10:47:25 10° NNE 10:52:02 41° E 10:55:15 18° SSE
Cosmos 2154 Rocket 4.1 10:50:20 40° SW 10:52:19 56° W 10:58:30 10° N
Cosmos 1707 4.1 10:49:34 10° NNW 10:50:59 22° NW 10:50:59 22° NW
Cosmos 2322 Rocket 3.3 10:53:49 25° W 10:55:04 28° WNW 10:59:51 10° N
ATLAS 5 CENTAUR R/B 2.0 10:51:25 10° NNW 10:56:29 85° WSW 11:02:42 10° SSE
ADEOS II 2.3 10:53:29 10° N 10:58:32 51° WNW 11:00:02 39° WSW
NOSS 2-2 (C) 2.9 11:00:00 67° WNW 11:00:06 68° WNW 11:03:14 10° NNE
Cosmos 1624 Rocket 4.0 10:59:06 34° S 11:01:26 81° ESE 11:06:42 10° NNE
Cosmos 1420 Rocket 4.1 11:00:10 40° SW 11:01:48 59° WNW 11:06:59 10° N
DMSP B5D2-2 4.1 10:57:59 13° SSE 11:02:43 81° ENE 11:07:57 10° N
Cosmos 2251 Rocket 4.1 11:00:21 10° N 11:05:34 59° ENE 11:10:42 10° SSE
Envisat 3.3 11:04:01 10° N 11:08:52 47° WNW 11:10:37 34° WSW
Cosmos 2056 Rocket 3.4 11:12:14 31° SSW 11:14:42 72° WNW 11:19:51 10° NNE
Meteor 1-18 Rocket 4.1 11:10:06 10° NNW 11:15:35 64° W 11:19:47 17° S
Cosmos 1371 Rocket 4.0 11:14:40 29° SSW 11:17:21 71° WNW 11:22:39 10° NNE
Meteor 2-13 Rocket 4.4 11:13:36 10° NNW 11:19:39 65° W 11:25:10 13° S
Cosmos 1339 Rocket 4.4 11:14:00 10° N 11:20:20 78° W 11:26:33 10° S
Meteor 2-10 4.5 11:21:23 28° SW 11:23:35 42° WNW 11:28:27 10° N
ACS3 Solar Sail 4.4 11:20:42 10° ENE 11:23:49 14° E 11:26:57 10° ESE
CENTAUR R/B 4.3 11:20:28 10° WNW 11:23:51 16° NW 11:27:38 10° N
ATLAS CENTAUR R/B 1.9 11:23:42 30° W 11:24:40 36° WNW 11:28:09 10° NNE
Cosmos 2218 Rocket 4.1 11:20:36 10° S 11:26:47 75° E 11:32:55 10° N
NOSS 3-2 (C) 3.1 11:25:01 27° SW 11:27:38 64° WNW 11:33:11 10° NNE
Cosmos 1536 2.9 11:27:16 33° SW 11:28:31 48° W 11:32:08 10° N
Cosmos 2333 Rocket 4.2 11:27:39 11° W 11:30:08 13° NW 11:32:52 10° NNW
ARGOS Delta rocket 3.9 11:30:10 10° N 11:35:16 85° W 11:39:34 13° SSW
Delta 198 4.5 11:35:34 21° SSW 11:36:08 21° S 11:38:59 10° SE
SL-16 R/B 2.5 11:30:06 10° S 11:36:20 73° WSW 11:42:36 10° NNW
SJ 16-02 3.2 11:34:20 10° N 11:38:11 32° ENE 11:42:01 10° SE
OAO 2 Rocket 4.2 11:36:39 22° WSW 11:38:18 27° SSW 11:42:27 10° SSE
CZ-2C R/B 2.6 11:36:10 10° NNE 11:41:16 77° ESE 11:46:24 10° S
SL-8 R/B 4.3 11:38:42 18° SSW 11:41:58 48° SE 11:46:31 10° ENE
Cosmos 1151 Rocket 3.8 11:39:50 10° NNW 11:43:37 31° W 11:46:01 18° SW
Delta 2 Rocket 3.5 11:39:50 10° WNW 11:44:06 74° N 11:48:18 10° E
Cosmos 405 Rocket 3.7 11:43:53 19° W 11:44:31 21° WNW 11:47:01 10° NNW
Meteor 1-11 Rocket 3.8 11:40:01 10° S 11:45:38 85° E 11:51:27 10° N
NOSS 2-2 (E) 3.5 11:43:46 22° WSW 11:45:46 42° WNW 11:48:48 10° NNE
SL-8 Rocket 4.1 11:42:42 12° SSW 11:48:23 58° W 11:54:30 10° N
USA 238 DEB 3.9 11:44:29 10° SSW 11:50:20 59° ESE 11:56:36 10° NE
USA 238 3.9 11:44:36 10° SSW 11:50:26 58° ESE 11:56:42 10° NE
Meteor 1-28 Rocket 3.2 11:49:53 10° S 11:53:04 42° W 11:56:16 10° NNW
COSMOS 2428 3.0 11:49:13 15° SW 11:53:48 53° WNW 11:59:23 10° N
